www.pogodaiklimat.ru

Погода и климат >> Архив погоды >> Румыния >> Холод


ПОГОДА в Холоде

  • Прогноз погоды в Холоде
  • Монитор погоды в Холоде

АРХИВ ПОГОДЫ в Холоде

Время (UTC), дата Ветер
(напр.,м/с)
 
Видим.   Явления Облачность Т
(С)
Тd
(С)
f
(%)
Тe
(С)
Тes
(С)
Комфортность P
(гПа)
Po
(гПа)
Тmin
(С)
Tmax
(С)
R
(мм)
R24
(мм)
S
(см)
03 10.07 СВ 2 н/о н/о +10.8 +10.2 96 +9 +9 1012.9 993.1
06 10.07 З 1-2
{2}
20 км {туман} 5/0
[Ac trans Ci fib]
+14.2 +11.3 83 +15 +20 1013.5 993.9 +9.9 +18.6 0
09 10.07 С 2-3
{4}
20 км 9/1 600 м
[Cu med, cong Ac As]
+19.1 +9.6 54 +20 +26 1013.5 994.2
12 10.07 СЗ 2-4
{5}
20 км 9/4 600 м
[Cb calv Ac As]
+20.7 +10.3 51 +23 +27 комфорт 1012.7 993.5 0
15 10.07 СВ 2-4
{6}
20 км 4/4 600 м
[Cb calv]
+21.9 +8.6 43 +23 +27 комфорт 1012.4 993.3
18 10.07 С 2-3
{4}
20 км 1/1 600 м
[Sc diur, vesp]
+19.5 +8.8 50 +21 +21 комфорт 1012.7 993.4 +14.2 +22.3 0
21 10.07 СВ 2 н/о н/о +12.3 +9.9 85 +11 +11 1013.7 994.0
00 11.07 СВ 2 н/о н/о +10.8 +8.8 87 +9 +9 1013.7 993.9
03 11.07 С 3 н/о н/о +10.0 +8.1 88 +8 +8 1013.2 993.3
06 11.07 В 3-4
{4}
20 км 1/0
[Ac trans]
+14.8 +9.0 68 +14 +19 1012.9 993.4 +9.1 +19.4 0
09 11.07 З 3-6
{6}
20 км 3/1 600 м
[Cu med, cong Ac trans]
+19.6 +10.4 55 +21 +32 комфорт 1012.8 993.5
12 11.07 СЗ 2-5
{7}
20 км 5/5 600 м
[Cb calv]
+21.7 +9.8 47 +23 +31 комфорт 1011.4 992.3 0
15 11.07 З 8-13
{13}
20 км гроза без осадков 9/6 600 м
[Cb cap Ac cuf]
+16.6 +10.5 67 +15 +15 1011.9 992.4
18 11.07 В 2-4
{5}
20 км {гроза, ливн. осадки} 4/1 600 м
[Sc diur, vesp Ac trans]
+14.4 +12.2 87 +14 +14 1012.5 992.9 +13.8 +23.7 2 0
21 11.07 С 2 н/о н/о +11.8 +10.7 93 +11 +11 1013.5 993.8
00 12.07 С 2 н/о н/о +9.0 +8.6 97 +7 +7 1014.3 994.3
03 12.07 С 2 н/о н/о +8.6 +8.4 99 +7 +7 1014.3 994.3
06 12.07 В 2-3
{3}
20 км ясно +12.4 +10.4 88 +11 +17 1015.0 995.2 +7.1 +14.4 0
09 12.07 В 1-3
{3}
20 км 1/1 600 м
[Cu hum]
+18.9 +10.8 59 +21 +38 комфорт 1014.4 995.0
12 12.07 С 1-3
{6}
20 км 4/4 600 м
[Cu med, cong]
+21.9 +10.0 47 +24 +35 комфорт 1013.2 994.1 0
15 12.07 З 2-3
{4}
20 км 9/4 600 м
[Cu med, cong Ac trans Ci sp]
+22.7 +10.1 45 +25 +27 комфорт 1012.4 993.4
18 12.07 ЮВ 1-1
{1}
20 км 10/0
[Ac As]
+20.4 +12.6 61 +24 +24 комфорт 1012.2 993.0 +12.4 +23.7 0
21 12.07 С 1 н/о н/о +17.3 +13.6 79 +18 +18 1012.7 993.3
00 13.07 СВ 1 н/о н/о +16.0 +13.4 85 +17 +17 1012.5 993.0
03 13.07 СВ 2 н/о н/о +14.9 +13.5 91 +15 +15 1011.7 992.2 0.2
06 13.07 З 3-5
{5}
20 км 9/6 600 м
[Cb calv Ac As]
+15.4 +13.9 91 +15 +16 1012.5 993.0 +14.7 +20.3 0
09 13.07 В 1-3
{4}
20 км в посл. час ливневой дождь 9/5 600 м
[Cb calv Ac As]
+17.1 +13.4 79 +18 +22 1011.8 992.4 2
12 13.07 ЮВ 2-5
{6}
20 км {ливн. осадки} 8/4 600 м
[Cu med, cong Ac cast Ci fib]
+21.1 +15.3 69 +24 +31 комфорт 1010.4 991.3 0
15 13.07 СЗ 6-10
{16}
20 км гроза без осадков {ливн. осадки} 9/9 600 м
[Cb cap]
+16.4 +12.0 75 +15 +15 1010.5 991.0 0.0
18 13.07 В 3-4
{4}
20 км {гроза, ливн. осадки} 9/3 600 м
[Sc diur, vesp Ac cuf]
+14.7 +14.0 96 +14 +14 1010.1 990.5 +13.9 +22.3 7 0
21 13.07 СВ 2 н/о н/о +14.1 +13.4 96 +13 +13 1010.2 990.6
00 14.07 С 2 н/о н/о +13.3 +12.9 97 +12 +12 1009.9 990.3
03 14.07 СВ 2 н/о н/о +12.5 +12.2 98 +11 +11 1009.6 990.0
06 14.07 СВ 1-3
{3}
20 км 8/0
[Ac As]
+14.6 +13.5 93 +15 +18 1009.5 990.0 +11.9 +14.8 0
09 14.07 В 1-3
{3}
20 км 5/4 600 м
[Cu med, cong Ac trans]
+21.0 +13.6 63 +25 +35 комфорт 1009.3 990.2
12 14.07 С 3-5
{6}
20 км 9/9 600 м
[Cb calv]
+21.5 +12.8 58 +24 +25 комфорт 1008.5 989.4 0
15 14.07 ЮВ 1-3
{6}
20 км 9/5 600 м
[Cb calv Ac cuf]
+20.6 +15.5 73 +25 +26 комфорт 1008.5 989.4
18 14.07 С 1-3
{5}
20 км 9/1 600 м
[Sc diur, vesp Ac As]
+20.3 +13.9 67 +24 +24 комфорт 1008.9 989.7 +14.5 +23.7 0
21 14.07 СЗ 3 н/о н/о +16.8 +12.8 77 +17 +17 1010.1 990.7
00 15.07 З 1 н/о н/о +14.2 +12.9 92 +14 +14 1010.3 990.8
03 15.07 СВ 1 н/о н/о +13.8 +12.8 94 +14 +14 1010.2 990.7
06 15.07 С 1-3
{5}
20 км 3/0
[Ac lent Ci sp]
+16.7 +12.7 77 +18 +23 1010.5 991.1 +13.1 +20.2 0
09 15.07 СЗ 3-6
{6}
20 км 3/3 600 м
[Cu med, cong]
+21.3 +13.5 61 +24 +33 комфорт 1010.3 991.3
12 15.07 С 3-7
{7}
20 км 3/3 600 м
[Cu med, cong]
+23.8 +13.3 52 +26 +35 жарко 1010.1 991.2 0
15 15.07 С 4-9
{9}
20 км 3/3 600 м
[Cu med, cong]
+24.7 +10.0 39 +26 +28 жарко 1010.1 991.3
18 15.07 С 2-3
{5}
20 км 3/1 600 м
[Sc diur, vesp Ci fib]
+21.1 +9.1 46 +22 +22 комфорт 1010.9 991.8 +16.4 +25.1 0
21 15.07 С 2 н/о н/о +15.2 +11.8 80 +15 +15 1012.4 992.8
00 16.07 СВ 1 н/о н/о +11.1 +10.5 96 +11 +11 1013.0 993.2
03 16.07 СВ 3 н/о н/о +10.5 +9.6 94 +8 +8 1012.9 993.1
06 16.07 В 3-4
{4}
20 км ясно +15.2 +11.9 81 +15 +19 1013.0 993.4 +9.2 +21.1 0
09 16.07 ЮЗ 2-3
{4}
20 км ясно +22.0 +14.8 64 +25 +42 комфорт 1012.1 993.0
12 16.07 СЗ 2-7
{7}
20 км 4/4 600 м
[Cu med, cong]
+24.2 +9.5 39 +25 +35 комфорт 1011.6 992.6 0
15 16.07 СЗ 3-6
{6}
20 км 3/3 600 м
[Cu med, cong]
+25.6 +9.6 36 +26 +30 жарко 1010.7 991.8
18 16.07 СЗ 2-2
{3}
20 км 1/1 600 м
[Sc diur, vesp]
+23.2 +11.0 46 +25 +25 комфорт 1010.7 991.7 +15.2 +26.2 0
21 16.07 СВ 3 н/о н/о +14.5 +12.1 86 +14 +14 1012.2 992.6
00 17.07 СВ 3 н/о н/о +13.5 +11.0 85 +12 +12 1012.7 993.0

 

Местоположение метеостанции Холод (Румыния): широта 46.78 долгота 22.12 высота над уровнем моря 164 м.

В архиве по умолчанию представлена погода в Холоде за последнюю неделю. Архивные данные за месяц целиком и за предыдущие месяцы, начиная с января 2011 года, Вы можете получить, выбрав интересующий диапазон дат из раскрывающегося списка и нажав кнопку "Ввод!".


*Определитесь, кто Вы:
робот инопланетянин человек

Внимание! Время в таблицах - всемирное. Для получения местного времени необходимо прибавить поправку, которая равна 2 ч.

Смотрите также архив погоды в соседних городах и на ближайших метеорологических станциях:

Погода в Думбравита де Кодру (Румыния) (17 км)
Погода в Орадя (Румыния) (32 км)
Погода в Штее (Румыния) (39 км)
Погода в Стана-де-Вале (Румыния) (40 км)
Погода в Бороде (Румыния) (43 км)
Погода на Станции Vladeasa 1800 (Румыния) (52 км)
Погода в Кишинеу-Криш (Румыния) (53 км)
Погода в Гурахонте (Румыния) (59 км)
Погода в Сэкуени (Румыния) (63 км)
Погода в Шири (Румыния) (69 км)

Пояснения к столбцам:

Ветер - указаны скорость ветра в м/с - средняя за 10 мин, порывы в срок и между сроками (в фигурных скобках) и направление, откуда дует ветер: С - северный, СВ - северо-восточный, В - восточный, ЮВ - юго-восточный, Ю - южный, ЮЗ - юго-западный, З - западный, СЗ - северо-западный.
Видимость - горизонтальная дальность видимости в метрах или километрах. При видимости от 1 до 10 км при отсутствии осадков обычно наблюдается дымка, при ухудшении видимости до 1 км и менее - туман. В сухую погоду видимость может ухудшаться дымом, пылью или мглою.
Явления - указаны атмосферные явления, наблюдавшиеся в срок или в последний час перед сроком; фигурными скобками обозначены явления, наблюдавшиеся между сроками (за 1-3 часа до срока); квадратными скобками обозначены град или гололедные отложения с указанием их диаметра в мм.
Облачность - указаны через наклонную черту общая и нижняя облачность в баллах и высота нижней границы облаков в метрах; квадратными скобками обозначены формы облаков: Ci - перистые, Cs - перисто-слоистые, Cc - перисто-кучевые, Ac - высококучевые, As - высокослоистые, Sc - слоисто-кучевые, Ns - слоисто-дождевые, Cu - кучевые, Cb - кучево-дождевые. Подробнее классификацию облаков см. в Атласе облаков (PDF).
T - Температура воздуха - температура, измеренная на высоте 2 м над землей.
Td - Температура точки росы - температура, при понижении до которой содержащийся в воздухе водяной пар достигнет насыщения.
f - Относительная влажность воздуха - влажноcть воздуха, измеренная на высоте 2 м над землей.
Te - Эффективная температура - температура, которую ощущает одетый по сезону человек в тени. Характеристика душности погоды. При расчете учитывается влияние влажности воздуха и скорости ветра на теплоощущения человека.
Tes - Эффективная температура на солнце - температура, которую ощущает человек, с поправкой на солнечный нагрев. Характеристика знойности погоды. Зависит от высоты солнца над горизонтом, облачности и скорости ветра. Ночью, в пасмурную погоду, а также при ветре 12 м/с и более поправка равна нулю.
P - Атмосферное давление - приведенное к уровню моря атмосферное давление.
Po - Атмосферное давление - измеренное на уровне метеостанции атмосферное давление.
Tmin - Минимальная температура - минимум температуры воздуха на высоте 2 м над землей.
Tmax - Максимальная температура - максимум температуры воздуха на высоте 2 м над землей.
R - Количество осадков - Количество выпавших осадков за период времени, мм. При наведении курсора мыши на число - период времени, за который выпало указанное количество осадков.
R24 - Количество осадков - Количество выпавших осадков за 24 часа, мм.
S - Снежный покров - Высота снежного покрова, см. При наведении курсора мыши на число - состояние снежного покрова и степень покрытия местности в баллах.